Overview Statistics Trail Chart Weather Telemetry Raw packets
 

This is the latest recevied weather packets stored in our database for station/object LY3FF-10. If no packets are shown the sender has not sent any weather packets the latest 10 day(s).

<< 19 20 21 22 23 24 25 >>
Time Temp. Humidity Pressure Rain* Wind** Luminosity Snow
1788216270 18.33° C 74% 992.2 hPa - - - -
1788215550 18.89° C 73% 992.1 hPa - - - -
1788214749 18.89° C 72% 992.3 hPa - - - -
1788213948 18.89° C 71% 992.4 hPa - - - -
1788213190 19.44° C 71% 992.5 hPa - - - -
1788212435 19.44° C 71% 992.7 hPa - - - -
1788211660 19.44° C 70% 992.8 hPa - - - -
1788210860 19.44° C 69% 992.7 hPa - - - -
1788210008 20° C 69% 992.7 hPa - - - -
1788209210 20° C 69% 992.8 hPa - - - -
1788208365 20° C 70% 992.7 hPa - - - -
1788207624 19.44° C 72% 992.7 hPa - - - -
1788206804 19.44° C 71% 992.6 hPa - - - -
1788205964 20° C 69% 992.4 hPa - - - -
1788205235 20° C 68% 992.2 hPa - - - -
1788204505 20° C 68% 992.2 hPa - - - -
1788203750 20° C 67% 992.2 hPa - - - -
1788202944 20° C 66% 992.2 hPa - - - -
1788202080 20° C 66% 992.2 hPa - - - -
1788201180 20.56° C 66% 992.3 hPa - - - -
1788200300 20.56° C 65% 992.1 hPa - - - -
1788199545 20.56° C 64% 992.2 hPa - - - -
1788198694 21.67° C 63% 992.4 hPa - - - -
1788197944 21.67° C 62% 992.4 hPa - - - -
1788197160 21.11° C 61% 992.3 hPa - - - -

* Rain since midnight (hover to see other rain measurements)
** Current wind speed in m/s (hover to see current wind gust speed)